Location: Vancouver
(49.2500°N, 123.1330°W)
Time: 03:14:38
(UTC-08:00)

Daily predictions for brighter satellites

Satellite Brightness Start Highest point End
(mag) Time Altitude Azimuth Time Altitude Azimuth Time Altitude Azimuth
USA 267 4.4 03:20:30 10° ENE 03:24:22 36° NE 03:24:22 36° NE
Cosmos 1943 Rocket 4.5 03:30:42 17° NNE 03:31:13 17° NE 03:34:50 10° ENE
NOSS 3-1 (C) 4.4 03:34:45 56° NE 03:34:45 56° NE 03:42:18 10° ESE
ATLAS 2AS CENTAUR R/B 4.3 03:43:37 29° N 03:44:36 30° N 03:51:25 10° ENE
Cosmos 2237 Rocket 4.0 03:53:23 25° NNE 03:53:23 25° NNE 03:55:37 10° NNE
USA 229 DEB 4.4 03:59:14 46° SSE 03:59:14 46° SSE 04:04:09 10° SE
USA 229 4.4 03:59:17 47° SSE 03:59:17 47° SSE 04:04:15 10° SE
NOSS 3-1 (A) 4.3 03:58:53 55° N 03:59:56 60° NE 04:08:02 10° ESE
Cosmos 2333 Rocket 4.0 04:07:14 22° NNE 04:07:14 22° NNE 04:09:15 10° NNE
Okean O Rocket 4.3 04:01:36 10° NNE 04:02:11 13° NNE 04:02:11 13° NNE
Cosmos 2219 Rocket 4.2 04:12:24 18° N 04:12:24 18° N 04:13:58 10° NNE
Cosmos 2123 Rocket 4.3 04:09:28 53° SE 04:10:37 63° E 04:16:49 10° NNE
GEOS 3 Rocket 4.4 04:06:02 10° NE 04:09:59 49° NE 04:09:59 49° NE
Lacrosse 5 rocket 2.8 04:27:21 41° E 04:27:21 41° E 04:30:49 10° ENE
SeaSat 1 4.5 04:22:38 10° NNE 04:24:00 18° N 04:24:00 18° N
SL-16 R/B 2.4 04:28:10 66° NE 04:28:10 66° NE 04:33:03 10° NNE
Meteor 2-3 Rocket 4.3 04:22:14 10° S 04:27:49 56° E 04:33:23 10° NNE
CZ-4B R/B 3.3 04:40:01 10° NNE 04:45:45 81° ESE 04:50:57 12° SSW
Cosmos 2369 Rocket 2.7 04:43:50 37° N 04:45:52 57° NE 04:51:23 10° SE
Intercosmos 25 4.4 04:47:26 40° E 04:47:26 40° E 04:51:03 10° SSE
Cosmos 1782 3.7 04:48:15 46° E 04:48:15 46° E 04:51:38 10° SSE
Cosmos 405 Rocket 4.1 04:50:57 32° NE 04:51:37 35° ENE 04:55:04 10° SE
USA 32 4.1 04:49:46 10° S 04:54:59 78° E 05:00:14 10° N
SKYMED 2 4.1 04:55:46 10° SSE 05:00:01 57° ENE 05:02:18 26° N
Celestis-02/Orion 38 4.4 05:02:36 10° SSE 05:07:44 68° WSW 05:08:25 60° WNW
USA 267 3.8 05:03:02 10° ENE 05:09:12 46° N 05:11:42 32° NW
CZ-2C R/B 4.4 05:06:20 10° NNE 05:10:54 30° E 05:15:22 10° SSE
Cosmos 2233 Rocket 3.9 05:08:51 10° NNW 05:14:53 60° W 05:20:53 10° S
Cosmos 1943 Rocket 2.6 05:12:16 21° NNW 05:16:09 63° ENE 05:21:46 10° SE
EO 1 Del DPAF 3.2 05:12:42 10° SSE 05:16:33 84° ENE 05:17:10 61° N
PAYLOAD B 4.3 05:12:01 10° N 05:17:26 53° WNW 05:19:16 38° WSW
Cosmos 2221 Rocket 3.6 05:15:01 18° N 05:18:18 79° E 05:22:47 10° SSE
Cosmos 1992 Rocket 3.9 05:16:47 39° SW 05:18:40 67° WNW 05:23:54 10° NNE
Cosmos 1703 Rocket 3.4 05:20:32 63° WNW 05:20:48 65° W 05:25:05 10° S
Cosmos 1777 Rocket 4.1 05:19:24 20° NNW 05:23:04 75° ENE 05:28:16 10° SSE
Okean-O 3.0 05:20:11 10° NNE 05:24:38 66° ESE 05:29:02 10° S
SJ-6F 4.3 05:20:51 10° N 05:24:56 62° WNW 05:25:35 54° WSW
ADEOS II 4.0 05:21:07 10° N 05:22:03 14° NNW 05:22:03 14° NNW
BREEZE-M DEB (TANK) 4.5 04:58:17 10° WSW 05:25:16 75° SSE 05:30:00 10° ENE
NOSS 3-1 (C) 4.2 05:22:12 34° WNW 05:25:17 50° WSW 05:33:15 10° SSE
Cosmos 1825 2.0 05:24:40 10° S 05:28:27 83° W 05:32:16 10° N
Cosmos 1869 Rocket 3.5 05:25:20 10° S 05:29:43 83° E 05:34:10 10° N
Cosmos 1943 3.8 05:28:58 10° S 05:34:31 57° ESE 05:40:05 10° NE
Meteor 2-6 Rocket 4.2 05:28:41 10° NNW 05:34:31 72° W 05:40:26 10° S
Cosmos 2237 Rocket 3.6 05:35:14 21° NNW 05:35:14 21° NNW 05:39:07 10° N
ATLAS 5 CENTAUR R/B 2.8 05:30:56 10° SSW 05:35:22 46° ESE 05:40:13 10° NE
ATLAS 2AS CENTAUR R/B 3.6 05:31:04 16° NW 05:37:30 53° NE 05:44:57 10° ESE
NOAA 6 3.9 05:34:13 10° NNE 05:39:23 89° WNW 05:44:30 10° SSW
Okean O Rocket 3.5 05:38:23 10° N 05:39:38 16° NNW 05:39:38 16° NNW
Abrixas rocket 2.3 05:42:04 52° SW 05:42:24 56° SSW 05:45:33 10° ESE
Cosmos 968 Rocket 4.0 05:41:54 33° WNW 05:43:02 36° WSW 05:47:49 10° SSW
Cosmos 1513 Rocket 4.4 05:37:46 10° N 05:43:54 88° W 05:49:58 10° S
PAYLOAD A 4.2 05:39:58 10° NNE 05:45:15 79° ESE 05:50:38 10° S
Lacrosse 4 Rocket 3.8 05:43:32 10° SSE 05:47:08 26° ESE 05:50:42 10° NE
COSMO-SKYMED 1 2.7 05:43:56 10° S 05:48:08 49° W 05:50:55 20° NNW
GEOS 3 Rocket 4.5 05:44:22 10° NNE 05:49:11 34° NNW 05:51:06 26° WNW
Cosmos 2333 Rocket 3.9 05:49:15 15° NNW 05:49:25 15° NNW 05:52:35 10° N
Cosmos 2263 4.2 05:45:18 17° NW 05:49:45 71° WSW 05:55:29 10° SSE
NOSS 3-1 (A) 4.3 05:46:22 23° WNW 05:50:58 47° WSW 05:58:52 10° S
Cosmos 1606 3.8 05:54:16 26° WSW 05:54:16 26° WSW 05:56:46 10° SSW
Cosmos 1441 Rocket 3.2 05:51:52 24° NNW 05:53:53 53° W 05:57:32 10° S
Cosmos 2219 Rocket 4.1 05:54:08 12° NNW 05:54:23 12° NNW 05:56:33 10° N
CZ-4 R/B 4.2 05:53:38 10° NE 05:56:37 20° E 05:59:36 10° SE
Cosmos 1674 Rocket 4.4 05:52:44 10° N 05:56:58 51° ENE 06:01:11 10° SSE
Cosmos 1891 Rocket 4.3 05:51:16 10° NNW 05:57:19 73° W 06:03:23 10° S
Cosmos 1408 3.2 05:54:18 10° SW 05:57:44 34° WNW 06:01:11 10° N
BREEZE-M DEB (TANK) 3.4 05:56:22 25° WSW 05:58:14 54° S 06:02:19 10° ESE
Cosmos 1812 4.4 05:57:03 10° N 06:00:38 34° ENE 06:04:11 10° SE
SeaSat 1 4.4 06:01:55 10° N 06:03:43 12° NNW 06:03:47 12° NNW
Lacrosse 5 rocket 1.9 06:03:04 23° W 06:05:39 49° NNW 06:10:12 10° NE
Gbstr 26 Del rocket 2.9 06:03:17 25° WNW 06:05:42 68° N 06:09:33 10° E
Meteor 1-27 Rocket 3.8 06:00:19 10° NNW 06:06:07 63° W 06:11:45 10° S
Thor Agena Rocket 3.4 06:02:08 10° SSE 06:07:13 85° WSW 06:12:18 10° NNW
MSX 4.1 06:01:58 10° NNE 06:07:46 74° ESE 06:13:31 10° S
IDEFIX/ARIANE 42P 2.5 06:04:35 10° N 06:09:47 72° WNW 06:14:56 10° SSW
Okean 1-7 3.9 06:08:23 17° NW 06:10:58 29° W 06:14:43 10° SSW
SL-16 R/B 3.3 06:10:06 19° WNW 06:12:10 24° NW 06:16:43 10° N
Cosmos 1603 4.0 06:11:26 10° SW 06:16:51 45° NW 06:22:21 10° NNE
Cosmos 2034 Rocket 4.0 06:13:15 10° NNW 06:19:24 59° W 06:25:26 10° S
SL-8 R/B 4.0 06:18:18 10° WSW 06:23:03 67° SSE 06:27:48 10° E
Cosmos 1782 4.4 06:23:58 16° W 06:23:58 16° W 06:26:09 10° WSW
SJ-12 3.8 06:20:21 10° NNE 06:24:29 82° WNW 06:28:35 10° SSW
CZ-4B R/B 4.4 06:21:34 10° N 06:25:41 21° NW 06:29:47 10° WSW
Cosmos 405 Rocket 4.0 06:26:13 17° WNW 06:27:25 19° W 06:30:06 10° SW
Cosmos 2369 Rocket 3.1 06:25:40 13° NW 06:29:33 27° WSW 06:34:09 10° SSW
COSMOS 2441 4.3 06:27:08 10° N 06:32:03 74° WNW 06:36:56 10° SSW
Cosmos 1908 Rocket 4.5 06:30:46 10° S 06:35:04 53° E 06:39:22 10° NNE
Cosmos 1733 Rocket 3.0 06:31:16 10° SSW 06:35:36 70° WNW 06:39:58 10° N
YAOGAN 1 4.3 06:32:20 10° NNE 06:36:23 37° E 06:40:25 10° SSE
Cosmos 1816 Rocket 4.5 06:32:02 10° SSW 06:38:15 81° W 06:44:27 10° N
Cosmos 332 Rocket 4.1 06:43:21 10° SSW 06:48:07 74° ESE 06:52:56 10° NNE
CZ-2C R/B 2.9 06:44:22 10° N 06:49:17 43° WNW 06:54:04 10° SW
USA 267 3.5 06:45:16 10° ESE 06:51:46 71° NNE 06:58:17 10° NW
Sich 1 Rocket 4.0 06:50:41 10° S 06:55:03 70° E 06:59:27 10° NNE
Cosmos 2208 Rocket 4.2 06:50:14 10° SSW 06:55:26 79° ESE 07:00:38 10° NNE
Cosmos 1943 Rocket 3.3 06:54:57 10° NW 06:59:28 25° WSW 07:03:58 10° SSW
Okean-O 4.0 06:57:42 10° NNW 07:00:39 18° WNW 07:03:35 10° W
COSMOS 2406 4.5 06:57:05 10° S 07:02:37 49° ESE 07:08:09 10° NE
